Location: Kitt Peak
(31.9639°N, 111.5992°W)
Time: 12:27:27
(UTC-07:00)

Tiangong 1 - Visible Passes

Search period start: 21 September 2017 00:00
Search period end: 01 October 2017 00:00
Orbit: 303 x 329 km, 42.8° (Epoch: 21 September)

Date Brightness Start Highest point End Pass type
(mag) Time Alt. Az. Time Alt. Az. Time Alt. Az.
21 Sep 3.5 05:33:29 10° NNW 05:34:46 13° NNE 05:36:03 10° NE visible
22 Sep 3.0 05:46:34 10° NNW 05:48:40 20° NNE 05:50:47 10° ENE visible
23 Sep 3.9 04:27:13 11° NNE 04:27:13 11° NNE 04:27:37 10° NNE visible
24 Sep 3.2 04:40:24 17° NNE 04:40:28 17° NNE 04:42:22 10° ENE visible
25 Sep 2.0 04:53:36 31° N 04:54:01 33° NNE 04:56:29 10° E visible
26 Sep 0.4 05:06:52 56° WNW 05:07:19 82° SW 05:09:59 10° SE visible
27 Sep 1.9 05:20:11 24° SW 05:20:25 24° SW 05:22:40 10° SSE visible
